Weather History for Fairbanks, AK

Change the Weather History Date:

Saturday, August 10, 2013

  Actual Average Record
Temperature  
Mean Temperature 61 °F 58 °F  
Max Temperature 70 °F 67 °F 83 °F (2005)
Min Temperature 51 °F 48 °F 31 °F (1969)
Degree Days  
Heating Degree Days 4 7  
Month to date heating degree days 8 63  
Since 1 June heating degree days 148 331  
Since 1 July heating degree days 77 171  
Cooling Degree Days 0 0  
Month to date cooling degree days 24 0  
Year to date cooling degree days 226 55  
Since 1 June cooling degree days 213 54  
Growing Degree Days 12 (Base 50)    
Moisture  
Dew Point 48 °F    
Average Humidity 63    
Maximum Humidity 86    
Minimum Humidity 43    
Precipitation  
Precipitation T in 0.06 in 0.57 in (1917)
Month to date precipitation 0.01 0.68  
Year to date precipitation 3.79 6.37  
Snow  
Snow 0.00 in 0.00 in 0.00 in (2002)
Month to date snowfall 0.0 0.0  
Since 1 June snowfall 0.0 0.0  
Since 1 July snowfall 0.0 0.0  
Snow Depth 0.00 in    
Sea Level Pressure  
Sea Level Pressure 29.81 in    
Wind  
Wind Speed 5 mph (NNW)    
Max Wind Speed 10 mph    
Max Gust Speed 18 mph    
Visibility 6 miles    
Events Rain    
T = Trace of Precipitation, MM = Missing Value Source: NWS Daily Summary

Daily Weather History Graph

Daily Weather History Graph

Search for Another Location

Airport:

Trip Planner

Search our weather history database for the weather conditions in past years. The results will help you decide how hot, cold, wet, or windy it might be!

Date:

Astronomy

Aug. 10, 2013 Rise Set
Actual Time 5:23 AM AKDT 10:27 PM AKDT
Civil Twilight 4:07 AM AKDT 11:41 PM AKDT
Nautical Twilight 2:29 AM AKDT 1:24 AM AKDT
Astronomical Twilight Sun does not rise Sun does not rise
Moon 11:18 AM AKDT (8/10) 10:07 PM AKDT (8/10)
Length of Visible Light 19h 33m
Length of Day
17h 04m
Waxing Crescent, 15% of the Moon is Illuminated
Aug 10
Waxing Crescent
Aug 14
First Quarter
Aug 20
Full
Aug 28
Last Quarter
Sep 5
New

Hourly Weather History & Observations

Time (AKDT) Temp. Dew Point Humidity Pressure Visibility Wind Dir Wind Speed Gust Speed Precip Events Conditions
12:53 AM 59.0 °F 52.0 °F 78% 29.70 in 9.0 mi NE 4.6 mph - N/A   Overcast
1:53 AM 57.9 °F 52.0 °F 81% 29.73 in 9.0 mi East 3.5 mph - N/A   Overcast
2:53 AM 57.9 °F 51.1 °F 78% 29.73 in 10.0 mi North 5.8 mph - N/A   Overcast
3:53 AM 54.0 °F 50.0 °F 86% 29.75 in 6.0 mi NE 4.6 mph - N/A   Smoke
4:53 AM 54.0 °F 48.9 °F 83% 29.76 in 5.0 mi NE 3.5 mph - N/A   Smoke
5:53 AM 54.0 °F 48.9 °F 83% 29.78 in 4.0 mi Calm Calm - N/A   Smoke
6:53 AM 54.0 °F 48.9 °F 83% 29.77 in 3.0 mi NW 3.5 mph - N/A   Smoke
7:45 AM 55.4 °F 50.0 °F 82% 29.77 in 2.5 mi Calm Calm - N/A   Smoke
7:53 AM 57.2 °F 50.0 °F 77% 29.78 in 2.5 mi NNW 3.5 mph - N/A   Smoke
8:44 AM 57.2 °F 50.0 °F 77% 29.77 in 1.8 mi NNE 4.6 mph - N/A   Smoke
8:53 AM 57.2 °F 50.0 °F 77% 29.78 in 1.8 mi North 5.8 mph - N/A   Smoke
9:53 AM 59.0 °F 46.4 °F 63% 29.78 in 1.2 mi North 5.8 mph - N/A   Smoke
10:53 AM 62.6 °F 46.4 °F 55% 29.78 in 1.2 mi North 4.6 mph - N/A   Smoke
11:34 AM 64.4 °F 48.2 °F 56% 29.76 in 2.0 mi North 6.9 mph - N/A   Smoke
11:53 AM 64.4 °F 48.2 °F 56% 29.77 in 2.5 mi NNE 6.9 mph - N/A   Smoke
12:22 PM 66.2 °F 48.2 °F 52% 29.77 in 4.0 mi North 5.8 mph - N/A   Smoke
12:53 PM 68.0 °F 46.4 °F 46% 29.78 in 6.0 mi North 3.5 mph - N/A   Smoke
1:53 PM 66.9 °F 48.0 °F 51% 29.79 in 7.0 mi East 4.6 mph - 0.00 in Rain Light Rain
2:53 PM 66.0 °F 46.9 °F 50% 29.82 in 5.0 mi WSW 10.4 mph 18.4 mph N/A   Smoke
3:04 PM 66.2 °F 48.2 °F 52% 29.81 in 2.0 mi Variable 6.9 mph 17.3 mph N/A   Smoke
3:34 PM 64.9 °F 48.9 °F 56% 29.80 in 3.0 mi NW 10.4 mph - N/A Rain Light Rain
3:53 PM 64.9 °F 48.0 °F 54% 29.83 in 3.0 mi WSW 8.1 mph - N/A Rain Light Rain
4:53 PM 66.9 °F 48.0 °F 51% 29.84 in 5.0 mi WSW 4.6 mph - N/A   Smoke
5:53 PM 68.0 °F 46.0 °F 45% 29.85 in 10.0 mi WSW 5.8 mph - N/A   Mostly Cloudy
6:53 PM 68.0 °F 46.9 °F 47% 29.87 in 10.0 mi West 5.8 mph - N/A   Mostly Cloudy
7:53 PM 68.0 °F 46.0 °F 45% 29.89 in 10.0 mi NW 8.1 mph - N/A   Scattered Clouds
8:53 PM 66.0 °F 45.0 °F 47% 29.92 in 10.0 mi NW 3.5 mph - N/A   Scattered Clouds
9:53 PM 63.0 °F 48.9 °F 60% 29.94 in 10.0 mi Calm Calm - N/A   Scattered Clouds
10:53 PM 59.0 °F 48.0 °F 67% 29.96 in 10.0 mi Calm Calm - N/A   Scattered Clouds
11:53 PM 57.0 °F 46.9 °F 69% 29.98 in 10.0 mi NW 3.5 mph - N/A   Scattered Clouds